Location: Pasadena, ca
(34.1243°N, 118.1037°W)
Time: 02:59:03
(UTC-08:00)

Envisat - Pass Details

Date: 16 October 2017
Orbit: 764 x 766 km, 98.2° (Epoch: 18 December)

Event Time Altitude Azimuth Distance (km) Brightness Sun altitude
Exits shadow 19:26:31 11° 41° (NE) 2,257 5.0 -15.2°
Drops below altitude 10° 19:26:49 10° 38° (NE) 2,308 5.1 -15.3°
Sets 19:30:23 0° 12° (NNE) 3,239 6.1 -16.0°
